Time,TemperatureF,DewpointF,PressureIn,WindDirection,WindDirectionDegrees,WindSpeedMPH,WindSpeedGustMPH,Humidity,HourlyPrecipIn,Conditions,Clouds,dailyrainin,SolarRadiationWatts/m^2,SoftwareType,DateUTC
2013-05-07 00:02:00,50.0,22.0,-100.00,SSE,156,3.0,7.0,33,0.00,,,0.00,0.000000,,2013-05-07 06:02:00,
2013-05-07 00:12:00,50.0,22.0,-100.00,SSE,156,3.0,7.0,33,0.00,,,0.00,0.000000,,2013-05-07 06:12:00,
2013-05-07 00:22:00,50.0,22.0,-100.00,SSE,156,3.0,7.0,33,0.00,,,0.00,0.000000,,2013-05-07 06:22:00,
2013-05-07 00:52:00,51.0,23.0,-100.00,South,177,4.0,9.0,33,0.00,,,0.00,0.000000,,2013-05-07 06:52:00,
2013-05-07 01:02:00,51.0,23.0,-100.00,South,177,4.0,9.0,33,0.00,,,0.00,0.000000,,2013-05-07 07:02:00,
2013-05-07 01:11:00,51.0,23.0,-100.00,South,177,4.0,9.0,33,0.00,,,0.00,0.000000,,2013-05-07 07:11:00,
2013-05-07 01:22:00,51.0,23.0,-100.00,South,177,4.0,9.0,33,0.00,,,0.00,0.000000,,2013-05-07 07:22:00,
2013-05-07 01:52:00,53.0,23.0,-100.00,SSE,168,5.0,14.0,31,0.00,,,0.00,0.000000,,2013-05-07 07:52:00,
2013-05-07 02:02:00,53.0,23.0,-100.00,SSE,168,5.0,14.0,31,0.00,,,0.00,0.000000,,2013-05-07 08:02:00,
2013-05-07 02:11:00,53.0,23.0,-100.00,SSE,168,5.0,14.0,31,0.00,,,0.00,0.000000,,2013-05-07 08:11:00,
2013-05-07 02:21:00,53.0,23.0,-100.00,SSE,168,5.0,14.0,31,0.00,,,0.00,0.000000,,2013-05-07 08:21:00,
2013-05-07 02:52:00,51.0,23.0,-100.00,SSE,158,4.0,10.0,33,0.00,,,0.00,0.000000,,2013-05-07 08:52:00,
2013-05-07 03:01:00,51.0,23.0,-100.00,SSE,158,4.0,10.0,33,0.00,,,0.00,0.000000,,2013-05-07 09:01:00,
2013-05-07 03:11:00,51.0,23.0,-100.00,SSE,158,4.0,10.0,33,0.00,,,0.00,0.000000,,2013-05-07 09:11:00,
2013-05-07 03:22:00,51.0,23.0,-100.00,SSE,158,4.0,10.0,33,0.00,,,0.00,0.000000,,2013-05-07 09:22:00,
2013-05-07 03:52:00,50.0,23.0,-100.00,South,175,4.0,13.0,34,0.00,,,0.00,0.000000,,2013-05-07 09:52:00,
2013-05-07 04:03:00,50.0,23.0,-100.00,South,175,4.0,13.0,34,0.00,,,0.00,0.000000,,2013-05-07 10:03:00,
2013-05-07 04:12:00,50.0,23.0,-100.00,South,175,4.0,13.0,34,0.00,,,0.00,0.000000,,2013-05-07 10:12:00,
2013-05-07 04:23:00,50.0,23.0,-100.00,South,175,4.0,13.0,34,0.00,,,0.00,0.000000,,2013-05-07 10:23:00,
2013-05-07 04:52:00,46.0,21.0,-100.00,SSW,209,3.0,7.0,37,0.00,,,0.00,0.000000,,2013-05-07 10:52:00,
2013-05-07 05:02:00,46.0,21.0,-100.00,SSW,209,3.0,7.0,37,0.00,,,0.00,0.000000,,2013-05-07 11:02:00,
2013-05-07 05:12:00,46.0,21.0,-100.00,SSW,209,3.0,7.0,37,0.00,,,0.00,0.000000,,2013-05-07 11:12:00,
2013-05-07 05:22:00,46.0,21.0,-100.00,SSW,209,3.0,7.0,37,0.00,,,0.00,0.000000,,2013-05-07 11:22:00,
2013-05-07 05:52:00,46.0,21.0,-100.00,SSW,205,3.0,7.0,37,0.00,,,0.00,0.000000,,2013-05-07 11:52:00,
2013-05-07 06:02:00,46.0,21.0,-100.00,SSW,205,3.0,7.0,37,0.00,,,0.00,0.000000,,2013-05-07 12:02:00,
2013-05-07 06:11:00,46.0,21.0,-100.00,SSW,205,3.0,7.0,37,0.00,,,0.00,0.000000,,2013-05-07 12:11:00,
2013-05-07 06:21:00,46.0,21.0,-100.00,SSW,205,3.0,7.0,37,0.00,,,0.00,0.000000,,2013-05-07 12:21:00,
2013-05-07 06:42:00,50.0,23.0,-100.00,SSW,207,1.0,7.0,35,0.00,,,0.00,37.000000,,2013-05-07 12:42:00,
2013-05-07 06:52:00,50.0,23.0,-100.00,SSW,207,1.0,7.0,35,0.00,,,0.00,37.000000,,2013-05-07 12:52:00,
2013-05-07 07:02:00,50.0,23.0,-100.00,SSW,207,1.0,7.0,35,0.00,,,0.00,37.000000,,2013-05-07 13:02:00,
2013-05-07 07:11:00,50.0,23.0,-100.00,SSW,207,1.0,7.0,35,0.00,,,0.00,37.000000,,2013-05-07 13:11:00,
2013-05-07 07:21:00,50.0,23.0,-100.00,SSW,207,1.0,7.0,35,0.00,,,0.00,37.000000,,2013-05-07 13:21:00,
2013-05-07 07:52:00,57.0,25.0,-100.00,South,183,4.0,7.0,29,0.00,,,0.00,216.000000,,2013-05-07 13:52:00,
2013-05-07 08:02:00,57.0,25.0,-100.00,South,183,4.0,7.0,29,0.00,,,0.00,216.000000,,2013-05-07 14:02:00,
2013-05-07 08:11:00,57.0,25.0,-100.00,South,183,4.0,7.0,29,0.00,,,0.00,216.000000,,2013-05-07 14:11:00,
2013-05-07 08:21:00,57.0,25.0,-100.00,South,183,4.0,7.0,29,0.00,,,0.00,216.000000,,2013-05-07 14:21:00,
2013-05-07 08:52:00,65.0,29.0,-100.00,SSE,156,6.0,11.0,26,0.00,,,0.00,425.000000,,2013-05-07 14:52:00,
2013-05-07 09:01:00,65.0,29.0,-100.00,SSE,156,6.0,11.0,26,0.00,,,0.00,425.000000,,2013-05-07 15:01:00,
2013-05-07 09:12:00,65.0,29.0,-100.00,SSE,156,6.0,11.0,26,0.00,,,0.00,425.000000,,2013-05-07 15:12:00,
2013-05-07 09:21:00,65.0,29.0,-100.00,SSE,156,6.0,11.0,26,0.00,,,0.00,425.000000,,2013-05-07 15:21:00,
2013-05-07 09:53:00,69.0,31.0,-100.00,SSE,161,6.0,14.0,24,0.00,,,0.00,634.000000,,2013-05-07 15:53:00,
2013-05-07 10:03:00,69.0,31.0,-100.00,SSE,161,6.0,14.0,24,0.00,,,0.00,634.000000,,2013-05-07 16:03:00,
2013-05-07 10:12:00,69.0,31.0,-100.00,SSE,161,6.0,14.0,24,0.00,,,0.00,634.000000,,2013-05-07 16:12:00,
2013-05-07 10:22:00,69.0,31.0,-100.00,SSE,161,6.0,14.0,24,0.00,,,0.00,634.000000,,2013-05-07 16:22:00,
2013-05-07 12:42:00,78.0,32.0,-100.00,East,82,5.0,12.0,19,-99.99,,,0.00,1059.000000,,2013-05-07 18:42:00,
2013-05-07 12:52:00,78.0,32.0,-100.00,East,82,5.0,12.0,19,-99.99,,,0.00,1059.000000,,2013-05-07 18:52:00,
2013-05-07 13:02:00,78.0,32.0,-100.00,East,82,5.0,12.0,19,-99.99,,,0.00,1059.000000,,2013-05-07 19:02:00,
2013-05-07 13:11:00,78.0,32.0,-100.00,East,82,5.0,12.0,19,-99.99,,,0.00,1059.000000,,2013-05-07 19:11:00,
2013-05-07 13:21:00,78.0,32.0,-100.00,East,82,5.0,12.0,19,-99.99,,,0.00,1059.000000,,2013-05-07 19:21:00,
2013-05-07 13:52:00,79.0,30.0,-100.00,ENE,60,4.0,12.0,17,0.00,,,0.00,1096.000000,,2013-05-07 19:52:00,
2013-05-07 14:02:00,79.0,30.0,-100.00,ENE,60,4.0,12.0,17,0.00,,,0.00,1096.000000,,2013-05-07 20:02:00,
2013-05-07 14:12:00,79.0,30.0,-100.00,ENE,60,4.0,12.0,17,0.00,,,0.00,1096.000000,,2013-05-07 20:12:00,
2013-05-07 14:22:00,79.0,30.0,-100.00,ENE,60,4.0,12.0,17,0.00,,,0.00,1096.000000,,2013-05-07 20:22:00,
2013-05-07 14:42:00,81.0,32.0,-100.00,ENE,57,4.0,9.0,17,0.00,,,0.00,1070.000000,,2013-05-07 20:42:00,
2013-05-07 14:52:00,81.0,32.0,-100.00,ENE,57,4.0,9.0,17,0.00,,,0.00,1070.000000,,2013-05-07 20:52:00,
2013-05-07 15:01:00,81.0,32.0,-100.00,ENE,57,4.0,9.0,17,0.00,,,0.00,1070.000000,,2013-05-07 21:01:00,
2013-05-07 15:11:00,81.0,32.0,-100.00,ENE,57,4.0,9.0,17,0.00,,,0.00,1070.000000,,2013-05-07 21:11:00,
2013-05-07 15:21:00,81.0,32.0,-100.00,ENE,57,4.0,9.0,17,0.00,,,0.00,1070.000000,,2013-05-07 21:21:00,
2013-05-07 15:53:00,80.0,30.0,-100.00,ENE,71,6.0,12.0,16,0.00,,,0.00,978.000000,,2013-05-07 21:53:00,
2013-05-07 16:02:00,80.0,30.0,-100.00,ENE,71,6.0,12.0,16,0.00,,,0.00,978.000000,,2013-05-07 22:02:00,
2013-05-07 16:13:00,80.0,30.0,-100.00,ENE,71,6.0,12.0,16,0.00,,,0.00,978.000000,,2013-05-07 22:13:00,
2013-05-07 16:22:00,80.0,30.0,-100.00,ENE,71,6.0,12.0,16,0.00,,,0.00,978.000000,,2013-05-07 22:22:00,
2013-05-07 16:52:00,82.0,28.0,-100.00,East,92,3.0,13.0,14,0.00,,,0.00,839.000000,,2013-05-07 22:52:00,
2013-05-07 17:02:00,82.0,28.0,-100.00,East,92,3.0,13.0,14,0.00,,,0.00,839.000000,,2013-05-07 23:02:00,
2013-05-07 17:12:00,82.0,28.0,-100.00,East,92,3.0,13.0,14,0.00,,,0.00,839.000000,,2013-05-07 23:12:00,
2013-05-07 17:21:00,82.0,28.0,-100.00,East,92,3.0,13.0,14,0.00,,,0.00,839.000000,,2013-05-07 23:21:00,
2013-05-07 17:52:00,81.0,29.0,-100.00,North,358,3.0,13.0,15,0.00,,,0.00,654.000000,,2013-05-07 23:52:00,
2013-05-07 18:02:00,81.0,29.0,-100.00,North,358,3.0,13.0,15,0.00,,,0.00,654.000000,,2013-05-08 00:02:00,
2013-05-07 18:12:00,81.0,29.0,-100.00,North,358,3.0,13.0,15,0.00,,,0.00,654.000000,,2013-05-08 00:12:00,
2013-05-07 18:21:00,81.0,29.0,-100.00,North,358,3.0,13.0,15,0.00,,,0.00,654.000000,,2013-05-08 00:21:00,
2013-05-07 18:42:00,79.0,29.0,-100.00,NNE,21,4.0,11.0,16,0.00,,,0.00,446.000000,,2013-05-08 00:42:00,
2013-05-07 18:52:00,79.0,29.0,-100.00,NNE,21,4.0,11.0,16,0.00,,,0.00,446.000000,,2013-05-08 00:52:00,
2013-05-07 19:02:00,79.0,29.0,-100.00,NNE,21,4.0,11.0,16,0.00,,,0.00,446.000000,,2013-05-08 01:02:00,
2013-05-07 19:11:00,79.0,29.0,-100.00,NNE,21,4.0,11.0,16,0.00,,,0.00,446.000000,,2013-05-08 01:11:00,
2013-05-07 19:21:00,79.0,29.0,-100.00,NNE,21,4.0,11.0,16,0.00,,,0.00,446.000000,,2013-05-08 01:21:00,
2013-05-07 19:42:00,73.0,28.0,-100.00,North,3,1.0,9.0,19,0.00,,,0.00,127.000000,,2013-05-08 01:42:00,
2013-05-07 19:52:00,73.0,28.0,-100.00,North,3,1.0,9.0,19,0.00,,,0.00,127.000000,,2013-05-08 01:52:00,
2013-05-07 20:02:00,73.0,28.0,-100.00,North,3,1.0,9.0,19,0.00,,,0.00,127.000000,,2013-05-08 02:02:00,
2013-05-07 20:12:00,73.0,28.0,-100.00,North,3,1.0,9.0,19,0.00,,,0.00,127.000000,,2013-05-08 02:12:00,
2013-05-07 20:22:00,73.0,28.0,-100.00,North,3,1.0,9.0,19,0.00,,,0.00,127.000000,,2013-05-08 02:22:00,
2013-05-07 20:52:00,67.0,30.0,-100.00,North,3,3.0,7.0,25,0.00,,,0.00,18.000000,,2013-05-08 02:52:00,
2013-05-07 21:02:00,67.0,30.0,-100.00,North,3,3.0,7.0,25,0.00,,,0.00,18.000000,,2013-05-08 03:02:00,
2013-05-07 21:11:00,67.0,30.0,-100.00,North,3,3.0,7.0,25,0.00,,,0.00,18.000000,,2013-05-08 03:11:00,
2013-05-07 21:21:00,67.0,30.0,-100.00,North,3,3.0,7.0,25,0.00,,,0.00,18.000000,,2013-05-08 03:21:00,
2013-05-07 21:52:00,61.0,27.0,-100.00,NNE,33,4.0,9.0,27,0.00,,,0.00,0.000000,,2013-05-08 03:52:00,
2013-05-07 22:02:00,61.0,27.0,-100.00,NNE,33,4.0,9.0,27,0.00,,,0.00,0.000000,,2013-05-08 04:02:00,
2013-05-07 22:13:00,61.0,27.0,-100.00,NNE,33,4.0,9.0,27,0.00,,,0.00,0.000000,,2013-05-08 04:13:00,
2013-05-07 22:23:00,61.0,27.0,-100.00,NNE,33,4.0,9.0,27,0.00,,,0.00,0.000000,,2013-05-08 04:23:00,
2013-05-07 22:43:00,60.0,28.0,-100.00,NNE,32,2.0,8.0,29,0.00,,,0.00,0.000000,,2013-05-08 04:43:00,
2013-05-07 22:53:00,60.0,28.0,-100.00,NNE,32,2.0,8.0,29,0.00,,,0.00,0.000000,,2013-05-08 04:53:00,
2013-05-07 23:02:00,60.0,28.0,-100.00,NNE,32,2.0,8.0,29,0.00,,,0.00,0.000000,,2013-05-08 05:02:00,
2013-05-07 23:12:00,60.0,28.0,-100.00,NNE,32,2.0,8.0,29,0.00,,,0.00,0.000000,,2013-05-08 05:12:00,
2013-05-07 23:22:00,60.0,28.0,-100.00,NNE,32,2.0,8.0,29,0.00,,,0.00,0.000000,,2013-05-08 05:22:00,
2013-05-07 23:52:00,57.0,27.0,-100.00,North,7,1.0,4.0,31,0.00,,,0.00,0.000000,,2013-05-08 05:52:00,